N1PLV Weather Reports


time (UTC)temp
F
wind
direction
speed
knots
gust
knots
rain 1hr
in
rain 24hr
in
rain mn
in
humidity
%
barometer
mb
20260503195957 61 79 6.1 12.2 0.00 0.06 0.00 54 1017.2
20260503194456 62 86 4.3 7.8 0.00 0.06 0.00 54 1017.5
20260503192956 62 338 7.0 13.0 0.00 0.06 0.00 45 1017.6
20260503185957 61 288 7.0 13.9 0.00 0.07 0.00 43 1017.8
20260503184456 62 300 7.0 12.2 0.00 0.07 0.00 45 1018.0
20260503182956 61 299 7.8 14.8 0.00 0.07 0.00 47 1018.2
20260503175957 61 313 6.1 14.8 0.00 0.08 0.00 43 1018.1
20260503174456 60 294 7.8 13.0 0.00 0.08 0.00 45 1018.1
20260503172956 60 322 6.1 13.0 0.00 0.08 0.00 47 1018.3
20260503171456 60 318 6.1 13.0 0.00 0.08 0.00 45 1018.2
20260503081456 52 323 4.3 11.3 0.00 0.41 0.00 73 1013.4
20260503071456 53 301 4.3 11.3 0.00 0.41 0.00 75 1012.6
20260503054456 54 296 3.5 9.6 0.00 0.41 0.00 74 1012.0
20260503052956 54 342 2.6 8.7 0.00 0.41 0.00 71 1011.6
20260503051456 55 330 6.1 15.6 0.00 0.41 0.00 73 1011.9
20260503045956 55 335 7.0 13.9 0.00 0.41 0.00 72 1012.0
20260503044456 55 331 7.0 12.2 0.00 0.41 0.00 73 1012.2
20260503041456 54 346 7.0 13.9 0.00 0.41 0.00 73 1012.0
20260503035956 54 320 7.8 13.9 0.00 0.41 0.41 71 1012.0
20260503032956 54 17 9.6 15.6 0.00 0.41 0.41 71 1011.9
20260503031456 54 355 9.6 18.2 0.00 0.41 0.41 71 1012.0
20260503025956 54 318 8.7 15.6 0.00 0.42 0.41 74 1012.1
20260503024456 54 360 7.8 13.0 0.00 0.42 0.41 76 1012.1
20260503022956 54 332 7.8 13.9 0.00 0.42 0.41 77 1012.1
20260503021456 54 355 9.6 17.4 0.00 0.42 0.41 80 1011.9
20260503015955 54 338 9.6 15.6 0.00 0.42 0.41 81 1011.9
20260503014456 54 345 7.8 14.8 0.00 0.42 0.41 83 1011.8
20260503012956 53 337 7.0 12.2 0.00 0.42 0.41 84 1012.2
20260503011455 53 24 7.8 13.9 0.01 0.42 0.41 84 1012.1
20260503005956 53 5 7.0 13.9 0.01 0.42 0.41 85 1011.6
20260503004456 53 355 7.0 13.9 0.01 0.42 0.41 84 1011.8
20260503001456 52 348 5.2 12.2 0.00 0.41 0.40 84 1011.7
20260502235956 52 5 7.8 13.0 0.00 0.41 0.40 84 1011.2
20260502234456 52 338 8.7 13.9 0.00 0.41 0.40 84 1011.0
20260502231455 52 360 10.4 16.5 0.01 0.41 0.40 85 1010.4
20260502222956 52 344 11.3 18.2 0.02 0.41 0.40 88 1010.7
20260502214456 52 5 11.3 17.4 0.04 0.40 0.39 88 1010.7
20260502212956 52 80 8.7 17.4 0.03 0.39 0.38 88 1010.7
20260502211455 52 47 8.7 14.8 0.02 0.38 0.37 87 1010.7
20260502205956 52 331 8.7 15.6 0.01 0.37 0.36 86 1010.6
20260502204455 52 355 10.4 16.5 0.00 0.36 0.35 85 1010.7
20260502201455 53 30 11.3 16.5 0.00 0.36 0.35 87 1010.3